Le nostre stazioni meteo in Italia

Pubblicità
Il mio iltempo24.it
Ancona, Italia (16190): Temperatura & dewpoint: 06.11.2019 06:00:00 - 12.11.2019 06:00:00 (CET)Ancona, Italia (16190): velocità del vento: 06.11.2019 06:00:00 - 12.11.2019 06:00:00 (CET)Ancona, Italia (16190): direzione del vento: 06.11.2019 06:00:00 - 12.11.2019 06:00:00 (CET)Ancona, Italia (16190): reduced air pressure: 06.11.2019 06:00:00 - 12.11.2019 06:00:00 (CET)
Data & Tempo tt [°C] td [°C] ff [km/h] ff [kn] dd ppp [hPa]
12.11.2019 06:00:00 - - - - - -
12.11.2019 05:00:00 12,7 11,7 18 10 O 998,1
12.11.2019 04:00:00 12,5 11,5 11 6 O 998,6
12.11.2019 03:00:00 12,7 11,7 11 6 O 1000,0
12.11.2019 02:00:00 12,4 11,3 5 3 O 1001,4
12.11.2019 01:00:00 12,5 11,4 8 4 O 1001,8
12.11.2019 00:00:00 12,4 11,1 8 4 ONO 1002,6
11.11.2019 23:00:00 12,9 11,6 4 2 NO 1003,1
11.11.2019 22:00:00 13,0 11,5 2 1 N 1003,9
11.11.2019 21:00:00 12,9 11,5 0 0 N 1004,7
11.11.2019 20:00:00 12,7 11,1 4 2 O 1005,0
11.11.2019 19:00:00 12,9 11,3 4 2 NNO 1005,3
11.11.2019 18:00:00 12,9 10,9 2 1 NO 1005,6
11.11.2019 17:00:00 13,0 10,7 2 1 NE 1005,6
11.11.2019 16:00:00 13,6 11,1 2 1 NO 1006,0
11.11.2019 15:00:00 - - - - - -
11.11.2019 14:00:00 13,6 11,6 8 4 N 1006,5
11.11.2019 13:00:00 12,9 10,9 8 4 NO 1007,2
11.11.2019 12:00:00 12,7 10,9 8 4 ONO 1008,1
11.11.2019 11:00:00 12,1 10,2 8 4 O 1008,7
11.11.2019 10:00:00 11,9 10,0 4 2 ONO 1008,7
11.11.2019 09:00:00 11,6 9,5 9 5 O 1008,5
11.11.2019 08:00:00 11,4 9,1 11 6 O 1008,7
11.11.2019 07:00:00 11,7 8,7 5 3 O 1008,4
11.11.2019 06:00:00 11,8 9,2 8 4 O 1008,5
11.11.2019 05:00:00 12,5 9,8 2 1 ENE 1008,9
11.11.2019 04:00:00 12,1 9,4 4 2 ONO 1009,1
11.11.2019 03:00:00 12,2 9,2 5 3 ONO 1009,2
11.11.2019 02:00:00 12,8 9,0 4 2 E 1009,3
11.11.2019 01:00:00 12,1 9,1 11 6 ESE 1009,6
11.11.2019 00:00:00 11,9 8,7 0 0 N 1009,6
10.11.2019 23:00:00 12,2 8,2 2 1 ONO 1009,2
10.11.2019 22:00:00 12,2 7,7 5 3 NO 1009,1
10.11.2019 21:00:00 11,4 6,5 2 1 S 1008,9
10.11.2019 20:00:00 12,0 7,3 2 1 S 1008,6
10.11.2019 19:00:00 11,5 7,0 2 1 S 1007,9
10.11.2019 18:00:00 11,3 6,6 5 3 NNE 1006,8
10.11.2019 17:00:00 11,7 6,1 4 2 NNO 1006,2
10.11.2019 16:00:00 12,5 6,7 4 2 N 1005,5
10.11.2019 15:00:00 12,7 6,7 11 6 N 1005,0
10.11.2019 14:00:00 12,9 6,9 16 9 NO 1004,8
10.11.2019 13:00:00 13,2 7,4 9 5 NO 1004,8
10.11.2019 12:00:00 13,0 8,2 15 8 NO 1004,6
10.11.2019 11:00:00 12,8 8,4 24 13 NO 1004,7
10.11.2019 10:00:00 11,9 7,8 22 12 ONO 1003,7
10.11.2019 09:00:00 11,0 6,9 16 9 O 1003,4
10.11.2019 08:00:00 9,8 6,1 15 8 OSO 1003,1
10.11.2019 07:00:00 10,3 6,8 16 9 O 1002,9
10.11.2019 06:00:00 10,8 7,8 15 8 O 1002,4
10.11.2019 05:00:00 11,4 8,6 11 6 ONO 1002,2
10.11.2019 04:00:00 11,4 8,9 15 8 O 1002,0
10.11.2019 03:00:00 11,2 8,6 11 6 O 1002,0
10.11.2019 02:00:00 11,0 7,1 15 8 O 1002,2
10.11.2019 01:00:00 11,7 6,6 11 6 ONO 1002,5
10.11.2019 00:00:00 13,0 6,3 8 4 N 1002,4
09.11.2019 23:00:00 12,8 6,3 4 2 NNE 1002,8
09.11.2019 22:00:00 13,1 5,9 8 4 NNE 1003,2
09.11.2019 21:00:00 13,2 5,3 5 3 NE 1003,3
09.11.2019 20:00:00 13,3 5,6 11 6 ENE 1003,8
09.11.2019 19:00:00 12,7 4,3 8 4 NE 1004,3
09.11.2019 18:00:00 13,1 5,2 5 3 NE 1004,1
09.11.2019 17:00:00 13,3 5,1 5 3 NE 1004,3
09.11.2019 16:00:00 14,1 6,1 5 3 ENE 1004,2
09.11.2019 15:00:00 13,9 5,4 8 4 E 1004,2
09.11.2019 14:00:00 15,4 6,1 4 2 NE 1004,3
09.11.2019 13:00:00 14,9 6,6 8 4 NNO 1004,6
09.11.2019 12:00:00 14,0 5,5 8 4 ONO 1004,6
09.11.2019 11:00:00 13,4 6,2 4 2 NNO 1005,3
09.11.2019 10:00:00 12,7 5,3 11 6 NNO 1005,1
09.11.2019 09:00:00 11,5 4,4 8 4 O 1005,0
09.11.2019 08:00:00 11,8 4,0 15 8 SSO 1004,4
09.11.2019 07:00:00 11,7 4,1 4 2 O 1004,3
09.11.2019 06:00:00 11,5 4,2 9 5 NNO 1003,4
09.11.2019 05:00:00 12,3 3,7 5 3 ONO 1002,3
09.11.2019 04:00:00 13,5 3,2 15 8 SO 1001,8
09.11.2019 03:00:00 14,1 3,2 35 19 SO 1001,3
09.11.2019 02:00:00 14,1 4,6 24 13 SO 1000,4
09.11.2019 01:00:00 14,4 4,9 46 25 SSO 1000,4
09.11.2019 00:00:00 14,7 5,4 29 16 SO 1000,1
08.11.2019 23:00:00 12,8 8,0 15 8 SSO 1000,7
08.11.2019 22:00:00 12,3 9,1 26 14 S 1001,2
08.11.2019 21:00:00 14,1 8,0 15 8 S 1000,3
08.11.2019 20:00:00 14,7 9,2 8 4 SE 999,9
08.11.2019 19:00:00 14,0 8,3 8 4 SE 1000,0
08.11.2019 18:00:00 14,2 8,3 5 3 S 1000,0
08.11.2019 17:00:00 14,0 8,6 16 9 S 999,7
08.11.2019 16:00:00 14,6 8,9 11 6 S 999,0
08.11.2019 15:00:00 13,6 9,0 22 12 S 998,3
08.11.2019 14:00:00 13,6 8,6 21 11 SSO 998,8
08.11.2019 13:00:00 15,4 9,0 18 10 SSE 998,3
08.11.2019 12:00:00 15,7 8,4 22 12 S 998,7
08.11.2019 11:00:00 16,8 10,4 15 8 SSE 998,9
08.11.2019 10:00:00 14,4 9,6 26 14 S 999,0
08.11.2019 09:00:00 13,1 9,5 22 12 S 999,9
08.11.2019 08:00:00 12,6 8,6 26 14 S 1000,4
08.11.2019 07:00:00 11,4 9,3 24 13 S 1000,2
08.11.2019 06:00:00 11,5 8,7 16 9 S 1000,0
08.11.2019 05:00:00 11,9 8,5 16 9 SSE 1000,3
08.11.2019 04:00:00 12,4 9,4 13 7 SSE 1000,8
08.11.2019 03:00:00 12,7 9,7 21 11 S 1001,6
08.11.2019 02:00:00 11,9 9,1 18 10 S 1002,1
08.11.2019 01:00:00 12,0 9,2 18 10 S 1002,1
08.11.2019 00:00:00 12,3 9,3 18 10 S 1002,6
07.11.2019 23:00:00 12,6 9,0 18 10 S 1003,4
07.11.2019 22:00:00 12,0 8,8 16 9 S 1004,1
07.11.2019 21:00:00 12,2 9,0 16 9 SSE 1004,2
07.11.2019 20:00:00 13,0 9,4 11 6 SSE 1004,2
07.11.2019 19:00:00 12,9 9,1 16 9 SSE 1004,2
07.11.2019 18:00:00 13,2 9,2 15 8 SE 1003,9
07.11.2019 17:00:00 14,0 9,6 15 8 SE 1003,7
07.11.2019 16:00:00 14,2 9,4 11 6 E 1003,5
07.11.2019 15:00:00 14,3 8,9 9 5 E 1003,3
07.11.2019 14:00:00 15,0 9,1 9 5 NE 1003,5
07.11.2019 13:00:00 15,0 9,7 5 3 NE 1003,5
07.11.2019 12:00:00 14,7 10,5 4 2 N 1004,0
07.11.2019 11:00:00 13,4 9,8 4 2 ONO 1004,6
07.11.2019 10:00:00 12,9 9,5 8 4 O 1004,3
07.11.2019 09:00:00 11,5 8,1 5 3 ONO 1003,7
07.11.2019 08:00:00 10,9 8,4 8 4 OSO 1003,0
07.11.2019 07:00:00 10,9 7,9 5 3 O 1002,5
07.11.2019 06:00:00 11,7 8,1 8 4 ONO 1002,2
07.11.2019 05:00:00 12,0 6,8 11 6 OSO 1002,0
07.11.2019 04:00:00 12,1 7,2 9 5 OSO 1001,7
07.11.2019 03:00:00 12,2 7,5 5 3 SSO 1001,5
07.11.2019 02:00:00 11,8 7,9 24 13 SO 1001,0
07.11.2019 01:00:00 11,5 7,6 26 14 SSO 1001,3
07.11.2019 00:00:00 11,9 7,8 13 7 O 1001,5
06.11.2019 23:00:00 12,4 8,0 13 7 O 1001,2
06.11.2019 22:00:00 12,5 7,5 13 7 O 1001,1
06.11.2019 21:00:00 12,9 7,5 11 6 ONO 1000,8
06.11.2019 20:00:00 13,0 7,2 18 10 ONO 1000,3
06.11.2019 19:00:00 13,0 7,0 9 5 OSO 1000,5
06.11.2019 18:00:00 13,8 6,6 11 6 ONO 1000,3
06.11.2019 17:00:00 14,2 8,1 5 3 NO 999,8
06.11.2019 16:00:00 14,7 7,7 13 7 NO 999,3
06.11.2019 15:00:00 14,9 7,9 16 9 O 999,5
06.11.2019 14:00:00 14,0 8,3 21 11 SSO 999,5
06.11.2019 13:00:00 16,6 6,3 15 8 SO 999,4
06.11.2019 12:00:00 16,1 8,3 5 3 SO 1000,2
06.11.2019 11:00:00 16,9 6,0 13 7 SSE 1000,3
06.11.2019 10:00:00 17,2 6,0 18 10 S 1000,2
06.11.2019 09:00:00 16,1 5,3 16 9 S 999,7
06.11.2019 08:00:00 13,9 5,7 24 13 SSO 999,5
06.11.2019 07:00:00 13,9 6,2 8 4 S 999,3
06.11.2019 06:00:00 12,6 6,1 9 5 S 999,0

tt = Temperatura
td = dewpoint
ff = velocità del vento
dd = direzione del vento
ppp = reduced air pressure

Stazioni seguenti

WeatherPro
AMSI
MeteoEarth